Regional Weather Roundup
Issued by NWS San Angelo, TX

Home | Current Version | Previous Version | Text Only | Print | Product List | Glossary On
Versions: 1 2 3 4 5 6 7 8 9 10 11 12 13 14 15 16 17 18 19 20 21 22 23 24 25 26 27 28 29 30 31 32 33 34 35 36 37 38 39 40 41 42 43 44 45 46 47 48 49 50
000
ASUS44 KSJT 121510
RWRSJT
WEST CENTRAL TEXAS REGIONAL WEATHER ROUNDUP
NATIONAL WEATHER SERVICE SAN ANGELO TX
1000 AM CDT SAT JUL 12 2014

NOTE: "FAIR" INDICATES FEW OR NO CLOUDS BELOW 12,000 FEET WITH NO
SIGNIFICANT WEATHER AND/OR OBSTRUCTIONS TO VISIBILITY.

TXZ049-054-064>066-071>073-076>078-098-099-113-114-127-128-139-140-
154-155-168>170-121600
...LOCATIONS ACROSS WEST CENTRAL TEXAS...

CITY           SKY/WX    TMP DP  RH WIND       PRES   REMARKS
SAN ANGELO     MOSUNNY   78  66  66 S9        30.19R
ABILENE        SUNNY     82  64  54 S16G23    30.20R
DYESS AFB      NOT AVBL
JUNCTION       MOSUNNY   81  63  54 S10       30.21R
SWEETWATER     SUNNY     80  62  53 S15       30.23S
BROWNWOOD      SUNNY     81  64  57 S8        30.21S HAZE
COLEMAN        SUNNY     80  62  55 S10G16    30.21S
SONORA         NOT AVBL
OZONA          FAIR      75  64  69 S17G26    30.23S
BRADY          SUNNY     81  64  57 S9        30.21S
$$

TEXAS PANHANDLE/OKLAHOMA PANHANDLE

CITY           SKY/WX    TMP DP  RH WIND       PRES   REMARKS
AMARILLO       MOSUNNY   76  62  62 S25G32    30.22R
BORGER         MOSUNNY   79  61  53 SW18G28   30.19S
CANADIAN       SUNNY     82  64  55 SW17G25   30.15S
DALHART        SUNNY     78  61  55 S18       30.21S
DUMAS          SUNNY     75  61  60 SW21      30.21S
GUYMON         NOT AVBL
HEREFORD       PTSUNNY   75  65  71 S14G22    30.24S
PAMPA          MOSUNNY   76  60  56 SW23G29   30.21S
PERRYTON       SUNNY     81  61  50 SW20G37   30.16S
$$

SOUTHERN PANHANDLE/SOUTH PLAINS/ROLLING PLAINS

CITY           SKY/WX    TMP DP  RH WIND       PRES   REMARKS
LUBBOCK        CLOUDY    73  62  68 S18G24    30.22S
SNYDER         SUNNY     77  63  61 S16G22    30.21S
CHILDRESS      SUNNY     83  62  49 S21       30.18R
SEMINOLE       CLOUDY    75  63  66 S13       30.21S
$$

PERMIAN BASIN

CITY           SKY/WX    TMP DP  RH WIND       PRES   REMARKS
MIDLAND        PTSUNNY   77  64  64 S20       30.18S
ODESSA         CLOUDY    76  63  64 S21       30.19R
WINK           SUNNY     79  65  62 SE17G24   30.14R
$$

FAR WEST/SOUTHWEST MOUNTAINS/TRANS PECOS

CITY           SKY/WX    TMP DP  RH WIND       PRES   REMARKS
ALPINE         MOSUNNY   75  59  56 S8        30.29R
DRYDEN           N/A     80  68  66 SE15      30.15R
EL PASO        MOSUNNY   79  59  50 SE8       30.14R
FORT STOCKTON  SUNNY     77  63  61 S18G25    30.17R
GUADALUPE PASS MOSUNNY   68  60  75 NE10      30.28R
MARFA          SUNNY     72  61  68 SE13      30.29R
PECOS          SUNNY     81  61  50 S7        30.13R
$$

DALLAS/FORT WORTH METROPLEX

CITY           SKY/WX    TMP DP  RH WIND       PRES   REMARKS
DFW AIRPORT    MOSUNNY   86  60  41 SW13      30.17S
FTW MEACHAM    MOSUNNY   85  62  46 SW10      30.18S
DAL-EXECUTIVE  SUNNY     87  60  40 SW6       30.18
GRAND PRAIRIE  SUNNY     84  61  45 S8        30.19S
ADDISON        SUNNY     84  59  42 SW6       30.18R
MESQUITE       SUNNY     84  64  51 CALM      30.19R
LANCASTER      SUNNY     85  62  46 S3        30.19S
$$

NORTH CENTRAL TEXAS

CITY           SKY/WX    TMP DP  RH WIND       PRES   REMARKS
SHRMAN/DENISON SUNNY     86  64  48 SW12      30.19S
GAINESVILLE    MOSUNNY   85  62  46 S8        30.19F
BRIDGEPORT     MOSUNNY   81  60  48 SW6       30.20S
DENTON         PTSUNNY   83  64  52 SW8       30.17F
WAXAHACHIE     SUNNY     83  61  47 SW6       30.20S
GRANBURY       SUNNY     84  63  48 SW6       30.20F
$$

WESTERN NORTH TEXAS

CITY           SKY/WX    TMP DP  RH WIND       PRES   REMARKS
WICHITA FALLS  SUNNY     86  65  49 S16G23    30.15S
VERNON         SUNNY     86  62  43 SW18      30.17S
BRECKENRIDGE   SUNNY     85  63  47 SW12      30.19S
COMANCHE       SUNNY     82  61  49 SW8       30.21S
$$

CENTRAL AND SOUTH CENTRAL TEXAS

CITY           SKY/WX    TMP DP  RH WIND       PRES   REMARKS
AUSTIN/BERGSTM MOSUNNY   81  70  69 VRB3      30.18S
WACO           SUNNY     82  68  62 CALM      30.19R
HILLSBORO      SUNNY     83  67  58 SW6       30.20R
TEMPLE         SUNNY     81  66  61 S5        30.20R
KILLEEN-GRAY   NOT AVBL
FORT HOOD      SUNNY     84  67  56 S6        30.19S
GEORGETOWN     SUNNY     81  66  61 SW9       30.20S
LAGO VISTA     FAIR      80  67  65 SW3       30.21F
SAN MARCOS     SUNNY     81  68  65 S6        30.20S
NEW BRAUNFELS  SUNNY     81  71  71 VRB3      30.17S
RANDOLPH AFB   NOT AVBL
SAN ANTONIO    PTSUNNY   80  71  74 S5        30.19R
STINSON        MOSUNNY   79  70  74 S6        30.17R
PLEASANTON     NOT AVBL
LA GRANGE      SUNNY     82  75  78 CALM      30.16S
GIDDINGS       MOSUNNY   78  73  85 CALM      30.23R
$$

EAST TEXAS

CITY           SKY/WX    TMP DP  RH WIND       PRES   REMARKS
PARIS          SUNNY     86  66  51 W6        30.18F
CLARKSVILLE    CLOUDY    87  67  51 CALM      30.17F
TYLER          SUNNY     85  70  60 W5        30.18S
LONGVIEW       SUNNY     86  70  58 NW6       30.17S
PALESTINE      SUNNY     81  66  60 SW5       30.20F
NACOGDOCHES    SUNNY     84  72  65 N6        30.18S
$$

TEXAS HILL COUNTRY AND EDWARDS PLATEAU

CITY           SKY/WX    TMP DP  RH WIND       PRES   REMARKS
LLANO          SUNNY     79  66  65 SW5       30.23S
HORSESHOE BAY  FAIR      81  65  58 SW3       30.20R
KERRVILLE      SUNNY     78  68  71 SE6       30.22S
FREDERICKSBRG  SUNNY     78  64  63 S8        30.21S
ROCKSPRINGS    MOSUNNY   75  66  73 SE12      30.24S
HONDO          PTSUNNY   80  69  69 S9        30.20S
UVALDE         CLOUDY    78  72  82 SE9       30.18S
DEL RIO        CLOUDY    78  71  79 SE12      30.14S
$$

SOUTHEAST TEXAS

CITY           SKY/WX    TMP DP  RH WIND       PRES   REMARKS
COLLEGE STN    MOSUNNY   80  73  79 SW6       30.19S
CALDWELL       MOSUNNY   81  73  78 SW6       30.22S HAZE
CROCKETT       SUNNY     86  77  74 SW5       30.21S
BRENHAM        SUNNY     82  72  70 CALM      30.19S
HUNTSVILLE     SUNNY     83  73  72 NW5       30.19S
CONROE         SUNNY     83  74  74 W3        30.18S
HOUSTON BUSH   MOSUNNY   84  75  74 CALM      30.18R
HOUSTON HOBBY  MOSUNNY   85  74  69 CALM      30.17R
PERLAND        PTSUNNY   85  74  69 CALM      30.18R
WHARTON        SUNNY     84  74  72 CALM      30.17S
$$

THE UPPER TEXAS COAST

CITY           SKY/WX    TMP DP  RH WIND       PRES   REMARKS
ORANGE         SUNNY     84  75  73 W3        30.18R
PORT ARTHUR    SUNNY     86  76  71 NW7       30.16R
GALVESTON      MOSUNNY   87  77  72 VRB3      30.17R
ANGLETON       MOSUNNY   84  75  74 CALM      30.17R
BAY CITY       CLOUDY    87  75  68 CALM      30.16S
$$

TEXAS COASTAL BEND, RIO GRANDE PLAINS DEEP SOUTH TEXAS

CITY           SKY/WX    TMP DP  RH WIND       PRES   REMARKS
VICTORIA       SUNNY     84  75  74 MISG      30.17S
BEEVILLE       FAIR      78  78 100 CALM      30.16F
ROCKPORT       MOSUNNY   86  75  69 E9        30.14S
PORT ARANSAS   MOSUNNY   82  76  82 E7        30.14S
PORT LAVACA    NOT AVBL
CORPUS CHRISTI PTSUNNY   84  73  69 VRB3      30.15R
KINGSVILLE NAS PTSUNNY   85  75  72 S9        30.14S
COTULLA        PTSUNNY   82  71  69 SE8       30.15R
LAREDO         MOSUNNY   84  72  67 SE10      30.16R
BROWNSVILLE    PTSUNNY   85  77  77 E7        30.13R
PORT ISABEL    MOSUNNY   85  75  72 E9        30.12S
HEBBRONVILLE   PTSUNNY   82  72  71 SE12      30.16S
MCALLEN        MOSUNNY   84  75  74 E10       30.12S
WESLACO        MOSUNNY   84  73  69 SE6       30.12S
FALFURRIAS     PTSUNNY   46  45  97 SE7       30.14R
EDINBURG       MOSUNNY   85  77  77 SE8       30.13S
$$


USA.gov is the U.S. government's official web portal to all federal, state and local government web resources and services.